Weather History for Prague, Czech Republic

Change the Weather History Date:

Tuesday, October 25, 2011

  Actual Average Record
Temperature  
Mean Temperature 46 °F -  
Max Temperature 48 °F 45 °F 64 °F (2004)
Min Temperature 44 °F 33 °F 24 °F (2003)
Degree Days  
Heating Degree Days 19    
Moisture  
Dew Point 43 °F    
Average Humidity 89    
Maximum Humidity 100    
Minimum Humidity 82    
Precipitation  
Precipitation 0.00 in 0.04 in - ()
Sea Level Pressure  
Sea Level Pressure 29.88 in    
Wind  
Wind Speed 12 mph ()    
Max Wind Speed 17 mph    
Max Gust Speed -    
Visibility 5.4 miles    
Events Rain    
Averages and records for this station are not official NWS values.
T = Trace of Precipitation, MM = Missing Value Source: Averaged Metar Reports

Daily Weather History Graph

Daily Weather History Graph

Search for Another Location

Airport:

Trip Planner

Search our weather history database for the weather conditions in past years. The results will help you decide how hot, cold, wet, or windy it might be!

Date:

Astronomy

Oct. 25, 2011 Rise Set
Actual Time 7:40 AM CEST 5:52 PM CEST
Civil Twilight 7:07 AM CEST 6:26 PM CEST
Nautical Twilight 6:29 AM CEST 7:04 PM CEST
Astronomical Twilight 5:51 AM CEST 7:41 PM CEST
Moon 5:45 AM CEST (10/25) 4:45 PM CEST (10/25)
Length of Visible Light 11h 19m
Length of Day
10h 12m
Waning Crescent, 3% of the Moon is Illuminated
Oct 25
Waning Crescent
Oct 26
New
Nov 2
First Quarter
Nov 10
Full
Nov 18
Last Quarter

Hourly Weather History & Observations

Time (CEST) Temp. Windchill Dew Point Humidity Pressure Visibility Wind Dir Wind Speed Gust Speed Precip Events Conditions
12:00 AM 46.4 °F 40.1 °F 42.8 °F 87% 29.98 in 5.6 mi East 15.0 mph - N/A   Light Drizzle
12:30 AM 46.4 °F 40.7 °F 42.8 °F 87% 29.98 in 5.0 mi East 12.7 mph - N/A   Light Drizzle
12:38 AM 46.4 °F 40.7 °F 42.8 °F 87% 29.98 in 5.6 mi East 12.7 mph - N/A   Mostly Cloudy
1:00 AM 46.4 °F 40.7 °F 42.8 °F 87% 29.98 in 5.6 mi East 12.7 mph - N/A   Mostly Cloudy
1:06 AM 46.4 °F 40.4 °F 42.8 °F 87% 29.98 in 5.0 mi East 13.8 mph - N/A   Mostly Cloudy
1:30 AM 46.4 °F 40.7 °F 42.8 °F 87% 29.98 in 5.0 mi East 12.7 mph - N/A   Mostly Cloudy
1:51 AM 46.4 °F 40.4 °F 42.8 °F 87% 29.95 in 5.6 mi East 13.8 mph - N/A   Scattered Clouds
2:00 AM 46 °F - 43 °F 86% 29.99 in 6 mi East 13.4 mph - -   Mist
2:00 AM 46.4 °F 40.4 °F 42.8 °F 87% 29.95 in 5.6 mi East 13.8 mph - N/A   Mostly Cloudy
2:30 AM 46.4 °F 40.4 °F 42.8 °F 87% 29.95 in 5.0 mi East 13.8 mph - N/A   Mostly Cloudy
3:00 AM 46.4 °F 40.1 °F 42.8 °F 87% 29.95 in 5.0 mi East 15.0 mph - N/A   Mostly Cloudy
3:30 AM 46.4 °F 39.8 °F 42.8 °F 87% 29.92 in 5.0 mi East 16.1 mph - N/A   Mostly Cloudy
4:00 AM 46.4 °F 40.1 °F 42.8 °F 87% 29.92 in 5.6 mi East 15.0 mph - N/A Rain Light Rain
4:30 AM 44.6 °F 37.2 °F 42.8 °F 93% 29.92 in 5.0 mi East 17.3 mph - N/A Rain Light Rain
5:00 AM 44.6 °F 37.8 °F 42.8 °F 93% 29.92 in 3.7 mi East 15.0 mph - N/A Rain Light Rain
5:30 AM 44.6 °F 37.8 °F 42.8 °F 93% 29.92 in 4.3 mi East 15.0 mph - N/A Rain Light Rain
6:00 AM 44.6 °F 38.1 °F 42.8 °F 93% 29.92 in 4.3 mi East 13.8 mph - N/A Rain Light Rain
6:30 AM 44.6 °F 37.8 °F 42.8 °F 93% 29.89 in 4.3 mi East 15.0 mph - N/A Rain Light Rain
7:00 AM 44.6 °F 38.1 °F 42.8 °F 93% 29.89 in 3.7 mi East 13.8 mph - N/A Rain Light Rain
7:30 AM 44.6 °F 38.8 °F 42.8 °F 93% 29.89 in 4.3 mi East 11.5 mph - N/A Rain Light Rain
8:00 AM 45 °F - 43 °F 90% 29.92 in 4 mi ESE 11.2 mph - - Rain Light Rain
8:00 AM 44.6 °F 39.2 °F 42.8 °F 93% 29.89 in 4.3 mi East 10.4 mph - N/A Rain Light Rain
8:13 AM 44.6 °F 38.1 °F 42.8 °F 93% 29.89 in 4.3 mi ESE 13.8 mph - N/A Rain Light Rain
8:30 AM 44.6 °F 38.8 °F 42.8 °F 93% 29.89 in 3.7 mi East 11.5 mph - N/A Rain Light Rain
9:00 AM 44.6 °F 39.7 °F 42.8 °F 93% 29.89 in 4.3 mi East 9.2 mph - N/A Rain Light Rain
9:30 AM 44.6 °F 39.2 °F 42.8 °F 93% 29.89 in 4.3 mi East 10.4 mph - N/A Rain Rain
10:00 AM 44.6 °F 38.8 °F 44.6 °F 100% 29.89 in 3.7 mi East 11.5 mph - N/A Rain Rain
10:30 AM 44.6 °F 38.4 °F 42.8 °F 93% 29.86 in 3.1 mi East 12.7 mph - N/A Rain Rain
11:00 AM 44.6 °F 39.2 °F 44.6 °F 100% 29.86 in 3.1 mi East 10.4 mph - N/A   Light Drizzle
11:30 AM 44.6 °F 39.2 °F 44.6 °F 100% 29.86 in 3.7 mi East 10.4 mph - N/A   Overcast
12:00 PM 46.4 °F 41.1 °F 44.6 °F 93% 29.86 in 4.3 mi East 11.5 mph - N/A   Overcast
12:12 PM 46.4 °F 41.1 °F 44.6 °F 93% 29.86 in 5.0 mi East 11.5 mph - N/A   Mostly Cloudy
12:30 PM 46.4 °F 41.1 °F 44.6 °F 93% 29.86 in 5.0 mi East 11.5 mph - N/A   Overcast
1:00 PM 46.4 °F 41.5 °F 44.6 °F 93% 29.83 in 6.2 mi East 10.4 mph - N/A   Overcast
1:30 PM 46.4 °F 41.9 °F 44.6 °F 93% 29.83 in 6.2 mi East 9.2 mph - N/A   Overcast
2:00 PM 47 °F - 44 °F 86% 29.86 in 12 mi ESE 11.2 mph - -   Partly Cloudy
2:00 PM 48.2 °F - 44.6 °F 87% 29.83 in 6.2 mi East 10.4 mph - N/A   Overcast
2:30 PM 48.2 °F - 44.6 °F 87% 29.83 in 6.2 mi East 10.4 mph - N/A   Overcast
3:00 PM 48.2 °F - 42.8 °F 82% 29.83 in 6.2 mi ESE 10.4 mph - N/A   Overcast
3:30 PM 48.2 °F - 42.8 °F 82% 29.83 in 6.2 mi East 10.4 mph - N/A   Overcast
4:00 PM 48.2 °F - 42.8 °F 82% 29.83 in 6.2 mi East 10.4 mph - N/A   Mostly Cloudy
4:30 PM 48.2 °F - 42.8 °F 82% 29.80 in 6.2 mi East 12.7 mph - N/A   Mostly Cloudy
5:00 PM 48.2 °F - 42.8 °F 82% 29.80 in 6.2 mi ESE 12.7 mph - N/A   Mostly Cloudy
5:30 PM 48.2 °F - 42.8 °F 82% 29.83 in 6.2 mi ESE 11.5 mph - N/A   Mostly Cloudy
6:00 PM 48.2 °F - 42.8 °F 82% 29.80 in 6.2 mi ESE 11.5 mph - N/A   Mostly Cloudy
6:30 PM 48.2 °F - 42.8 °F 82% 29.80 in 6.2 mi ESE 10.4 mph - N/A   Overcast
7:00 PM 48.2 °F - 42.8 °F 82% 29.83 in 6.2 mi ESE 9.2 mph - N/A   Overcast
7:30 PM 48.2 °F - 44.6 °F 87% 29.83 in 6.2 mi ESE 11.5 mph - N/A   Overcast
8:00 PM 48.2 °F - 44.6 °F 87% 29.80 in 6.2 mi ESE 11.5 mph - N/A   Overcast
8:30 PM 48.2 °F - 44.6 °F 87% 29.80 in 6.2 mi East 10.4 mph - N/A   Overcast
9:00 PM 48.2 °F - 44.6 °F 87% 29.83 in 6.2 mi ESE 8.1 mph - N/A   Overcast
9:30 PM 48.2 °F - 44.6 °F 87% 29.83 in 6.2 mi East 8.1 mph - N/A   Overcast
10:00 PM 48.2 °F - 44.6 °F 87% 29.83 in 6.2 mi ESE 8.1 mph - N/A   Overcast
10:30 PM 48.2 °F - 44.6 °F 87% 29.83 in 6.2 mi East 9.2 mph - N/A   Overcast
11:00 PM 48.2 °F - 44.6 °F 87% 29.83 in 6.2 mi ESE 8.1 mph - N/A   Overcast
11:30 PM 48.2 °F - 44.6 °F 87% 29.83 in 5.6 mi East 6.9 mph - N/A Rain Light Rain